[[{"header":{"parameterUnit":"m.s-1","parameterCategory":1,"la1":30.2991,"la2":30.254,"lo1":-89.0895,"lo2":-89.0444,"dy":0.0017,"dx":0.0017,"nx":28,"ny":28,"refTime":"2024-11-25T09:00:00:Z","depth":0,"parameterNumber":2,"parameterNumberName":"U-component_of_WINDS"},"data":[0,0,0,0,0,0,0,0,0,0,0,0,0,0,0,0,0,0,0,0,0,0,0,0,0,0,0,0,0,0,0,0,0,0,0,0,0,0,0,0,0,0,0,0,0,0,0,0,0,0,0,0,0,0,0,0,0,0,-0.3715,-0.3715,0,-0.37,-0.37,-0.37,-0.3684,-0.3684,-0.3684,-0.3683,-0.3667,-0.3667,-0.3666,0,0,0,0,0,0,0,0,0,0,0,0,0,-0.373,-0.373,-0.3715,-0.3715,-0.3715,-0.37,-0.37,-0.37,-0.3684,-0.3684,-0.3684,-0.3683,-0.3667,-0.3667,-0.3666,0,0,0,0,0,0,0,0,0,0,0,0,0,-0.372,-0.373,-0.3715,-0.3705,-0.3704,-0.37,-0.37,-0.37,-0.3684,-0.3684,-0.3684,-0.3683,-0.3667,-0.3667,-0.3666,-0.367,0,0,-0.3665,-0.3665,0,0,0,0,0,0,0,0,-0.3721,-0.372,-0.3707,-0.3706,-0.3705,-0.3694,-0.3699,-0.369,-0.3684,-0.3692,-0.3683,-0.3683,-0.3676,-0.3675,-0.3673,-0.367,-0.3669,-0.3665,-0.3665,-0.3665,-0.3665,0,0,0,0,0,0,0,-0.3721,-0.372,-0.3709,-0.3707,-0.3706,-0.3701,-0.37,-0.3697,-0.3686,-0.3691,-0.369,-0.3688,-0.3675,-0.3673,-0.3672,-0.3669,-0.3665,-0.3665,-0.3665,-0.3664,-0.3667,-0.3668,0,0,0,0,0,0,-0.3724,-0.3721,-0.371,-0.3709,-0.3712,-0.3701,-0.3699,-0.3698,-0.3686,-0.3684,-0.3689,-0.3688,-0.3674,-0.3673,-0.3671,-0.3675,-0.3665,-0.3664,-0.3664,-0.3667,-0.3668,-0.3668,0,0,0,0,0,0,-0.3724,-0.3723,-0.371,-0.3715,-0.3713,-0.3702,-0.37,-0.3698,-0.3695,-0.3684,-0.3682,-0.3689,-0.3674,-0.3672,-0.3671,-0.3674,-0.3664,-0.3664,-0.3667,-0.3667,-0.3668,-0.3683,0,0,0,0,0,0,-0.3725,-0.3723,-0.3725,-0.3715,-0.3712,-0.371,-0.37,-0.3697,-0.3695,-0.3693,-0.3683,-0.3681,-0.3673,-0.3671,-0.367,-0.3674,-0.3664,-0.3666,-0.3667,-0.3668,-0.3682,-0.3684,-0.3685,0,0,0,0,0,-0.3725,-0.373,-0.3725,-0.3724,-0.3714,-0.3711,-0.3709,-0.37,-0.3695,-0.3697,-0.3689,-0.3682,-0.3674,-0.3671,-0.367,-0.3673,-0.3666,-0.3667,-0.3668,-0.3681,-0.3683,-0.3685,0,0,0,0,0,0,-0.374,-0.3728,-0.3723,-0.3724,-0.3719,-0.3708,-0.371,-0.3703,-0.3698,-0.3697,-0.3686,-0.3683,-0.3683,-0.3678,-0.3675,-0.3676,-0.3669,-0.3669,-0.368,-0.3682,-0.3683,-0.3685,-0.3663,0,0,0,0,0,-0.3744,-0.3742,-0.3731,-0.3734,-0.3731,-0.3721,-0.3719,-0.3712,-0.3706,-0.3703,-0.3696,-0.369,-0.3686,-0.3683,-0.3679,-0.3681,-0.3678,-0.3683,-0.3684,-0.3686,-0.3686,-0.3686,-0.3688,-0.367,-0.367,-0.367,0,0,-0.3751,-0.3744,-0.3744,-0.3736,-0.3731,-0.3729,-0.3719,-0.3717,-0.3716,-0.3703,-0.3701,-0.3696,-0.3688,-0.3688,-0.3688,-0.3684,-0.3691,-0.3687,-0.3688,-0.3688,-0.3687,-0.3689,-0.369,-0.3671,-0.3671,-0.367,0,0,-0.3763,-0.3758,-0.3759,-0.3754,-0.3746,-0.374,-0.374,-0.373,-0.3726,-0.3724,-0.3715,-0.3712,-0.3706,-0.3701,-0.3697,-0.3707,-0.37,-0.3706,-0.3715,-0.3715,-0.3716,-0.3717,-0.3721,-0.3722,-0.3706,-0.3707,-0.3707,0,-0.3773,-0.377,-0.376,-0.3759,-0.3756,-0.3745,-0.3746,-0.3741,-0.3733,-0.373,-0.3726,-0.3718,-0.3712,-0.371,-0.3713,-0.3711,-0.371,-0.3707,-0.3717,-0.3718,-0.3719,-0.3722,-0.3723,-0.3707,-0.3707,-0.3707,-0.3707,0,-0.3782,-0.378,-0.3782,-0.3774,-0.3771,-0.3771,-0.3761,-0.3759,-0.3753,-0.3746,-0.3744,-0.3737,-0.3731,-0.373,-0.3724,-0.3727,-0.3725,-0.3719,-0.3711,-0.3722,-0.3724,-0.3725,-0.3708,-0.3708,-0.3708,-0.3708,0,0,-0.3803,-0.379,-0.3791,-0.3787,-0.3778,-0.3776,-0.3775,-0.377,-0.3768,-0.3762,-0.3761,-0.3756,-0.375,-0.3746,-0.3739,-0.3739,-0.3747,-0.3733,-0.3733,-0.3736,-0.375,-0.3755,-0.3756,-0.3742,-0.3742,-0.3742,-0.3751,0,-0.3814,-0.3812,-0.3803,-0.3804,-0.3802,-0.3791,-0.379,-0.3784,-0.3778,-0.3775,-0.3767,-0.3764,-0.3757,-0.3754,-0.3754,-0.3746,-0.375,-0.3746,-0.374,-0.374,-0.3743,-0.3758,-0.3763,-0.3771,-0.3752,-0.3752,-0.3752,0,-0.3825,-0.3821,-0.3821,-0.3812,-0.3811,-0.381,-0.3804,-0.3802,-0.3794,-0.379,-0.3785,-0.3777,-0.3775,-0.3768,-0.3765,-0.3762,-0.3759,-0.3755,-0.3755,-0.3754,-0.3747,-0.3757,-0.3774,-0.3775,-0.3754,-0.3754,-0.3753,0,-0.3841,-0.3834,-0.3834,-0.3831,-0.382,-0.382,-0.3815,-0.3808,-0.3805,-0.3799,-0.3797,-0.3792,-0.3788,-0.3784,-0.3774,-0.377,-0.3772,-0.3764,-0.3768,-0.3768,-0.3768,-0.3769,-0.3785,-0.3767,-0.3767,-0.3767,-0.3767,0,-0.3853,-0.3854,-0.3841,-0.384,-0.3841,-0.383,-0.3831,-0.3825,-0.3818,-0.3816,-0.3806,-0.3804,-0.3792,-0.3789,-0.3781,-0.3779,-0.3778,-0.3774,-0.3772,-0.3775,-0.3775,-0.3773,-0.3772,-0.3767,-0.3767,-0.3767,-0.3767,0,-0.387,-0.3861,-0.386,-0.385,-0.3847,-0.3848,-0.3839,-0.3838,-0.3831,-0.3828,-0.3827,-0.3816,-0.3811,-0.3802,-0.3794,-0.3789,-0.3789,-0.3786,-0.3792,-0.379,-0.3794,-0.3794,-0.3809,-0.381,-0.3792,-0.3793,-0.3793,0,-0.3878,-0.3879,-0.3868,-0.3867,-0.3862,-0.3859,-0.3856,-0.3846,-0.3843,-0.3835,-0.3835,-0.383,-0.3825,-0.3818,-0.3809,-0.3803,-0.3799,-0.3805,-0.3798,-0.3801,-0.3799,-0.3799,-0.3799,-0.3806,-0.3807,-0.3807,-0.3807,0,-0.3894,-0.389,-0.3886,-0.3881,-0.3878,-0.3873,-0.3868,-0.3866,-0.3855,-0.3852,-0.3848,-0.3844,-0.3836,-0.3831,-0.3824,-0.3818,-0.3811,-0.3809,-0.381,-0.3812,-0.3816,-0.3814,-0.3796,-0.3809,-0.3809,-0.3809,-0.3808,-0.3808,-0.3907,-0.3906,-0.3899,-0.3895,-0.389,-0.3885,-0.3884,-0.3877,-0.3873,-0.3867,-0.3861,-0.3856,-0.3849,-0.3838,-0.3833,-0.3829,-0.3826,-0.3826,-0.3826,-0.3827,-0.3828,-0.3817,-0.3828,-0.3828,-0.3828,-0.3828,-0.3828,0,-0.3922,-0.3916,-0.3913,-0.3906,-0.3903,-0.3896,-0.389,-0.3888,-0.3884,-0.3878,-0.3873,-0.3868,-0.3863,-0.3853,-0.3847,-0.3846,-0.3842,-0.3844,-0.3844,-0.3843,-0.3832,-0.3832,-0.3848,-0.3848,-0.3848,-0.3848,-0.3848,-0.3847,-0.3929,-0.3928,-0.3923,-0.3919,-0.3914,-0.391,-0.3907,-0.3902,-0.3897,-0.3891,-0.3887,-0.3881,-0.3873,-0.3866,-0.3861,-0.3858,-0.3856,-0.386,-0.3856,-0.3846,-0.3844,-0.3842,-0.3842,-0.386,-0.386,-0.3868,-0.3868,-0.3868]},{"header":{"parameterUnit":"m.s-1","parameterCategory":1,"la1":30.2991,"la2":30.254,"lo1":-89.0895,"lo2":-89.0444,"dy":0.0017,"dx":0.0017,"nx":28,"ny":28,"refTime":"2024-11-25T09:00:00:Z","depth":0,"parameterNumber":3,"parameterNumberName":"V-component_of_WINDS"},"data":[0,0,0,0,0,0,0,0,0,0,0,0,0,0,0,0,0,0,0,0,0,0,0,0,0,0,0,0,0,0,0,0,0,0,0,0,0,0,0,0,0,0,0,0,0,0,0,0,0,0,0,0,0,0,0,0,0,0,-1.824,-1.8241,0,-1.8262,-1.8263,-1.8263,-1.8263,-1.8263,-1.8262,-1.8262,-1.8282,-1.8283,-1.8284,0,0,0,0,0,0,0,0,0,0,0,0,0,-1.8197,-1.8198,-1.824,-1.8241,-1.8241,-1.8262,-1.8263,-1.8263,-1.8263,-1.8263,-1.8262,-1.8262,-1.8282,-1.8283,-1.8284,0,0,0,0,0,0,0,0,0,0,0,0,0,-1.8217,-1.8198,-1.824,-1.8244,-1.8244,-1.8262,-1.8263,-1.8263,-1.8263,-1.8263,-1.8262,-1.8262,-1.8282,-1.8283,-1.8284,-1.8299,0,0,-1.8288,-1.8288,0,0,0,0,0,0,0,0,-1.8216,-1.8219,-1.8243,-1.8244,-1.8244,-1.826,-1.8255,-1.8275,-1.8263,-1.8256,-1.8262,-1.8262,-1.8275,-1.8277,-1.8282,-1.83,-1.8301,-1.8288,-1.8289,-1.8289,-1.8289,0,0,0,0,0,0,0,-1.8214,-1.8218,-1.8249,-1.8243,-1.8244,-1.8243,-1.8246,-1.8258,-1.8267,-1.8257,-1.8257,-1.8259,-1.8275,-1.828,-1.8282,-1.8302,-1.8288,-1.8289,-1.829,-1.829,-1.8334,-1.8334,0,0,0,0,0,0,-1.8213,-1.8216,-1.8248,-1.825,-1.8229,-1.8245,-1.8247,-1.8255,-1.8267,-1.8269,-1.826,-1.8259,-1.8279,-1.8281,-1.8283,-1.8301,-1.8289,-1.829,-1.8291,-1.8334,-1.8334,-1.8335,0,0,0,0,0,0,-1.8212,-1.8216,-1.8247,-1.8233,-1.8237,-1.8246,-1.8254,-1.8256,-1.8261,-1.827,-1.8271,-1.8263,-1.8278,-1.8281,-1.8295,-1.8302,-1.8291,-1.8292,-1.8333,-1.8334,-1.8334,-1.8339,0,0,0,0,0,0,-1.821,-1.8215,-1.8222,-1.8233,-1.8238,-1.826,-1.8255,-1.8256,-1.8263,-1.8263,-1.8274,-1.8275,-1.8278,-1.8294,-1.8297,-1.8304,-1.8293,-1.8332,-1.8333,-1.8334,-1.8338,-1.834,-1.8341,0,0,0,0,0,-1.8209,-1.8221,-1.8222,-1.8226,-1.8246,-1.8261,-1.8263,-1.8268,-1.8264,-1.827,-1.8276,-1.8275,-1.8301,-1.8295,-1.8298,-1.8306,-1.8332,-1.8333,-1.8334,-1.8338,-1.8339,-1.8341,0,0,0,0,0,0,-1.8209,-1.8223,-1.8224,-1.824,-1.825,-1.8261,-1.8269,-1.8269,-1.8279,-1.8278,-1.8282,-1.8285,-1.8299,-1.8304,-1.8297,-1.8321,-1.8316,-1.8318,-1.8318,-1.8319,-1.8321,-1.8319,-1.8294,0,0,0,0,0,-1.8212,-1.8223,-1.8234,-1.8248,-1.8252,-1.826,-1.8266,-1.8269,-1.8278,-1.8282,-1.8288,-1.8297,-1.8307,-1.8313,-1.8323,-1.8339,-1.8341,-1.8346,-1.8347,-1.8348,-1.835,-1.8358,-1.836,-1.8338,-1.8338,-1.8338,0,0,-1.8216,-1.8225,-1.8231,-1.8248,-1.8255,-1.8267,-1.8263,-1.8275,-1.8283,-1.8283,-1.8297,-1.8303,-1.8312,-1.8327,-1.8334,-1.8332,-1.8356,-1.835,-1.835,-1.8351,-1.8359,-1.8362,-1.8363,-1.8339,-1.8339,-1.8338,0,0,-1.8229,-1.8237,-1.825,-1.8258,-1.8269,-1.8274,-1.8277,-1.8288,-1.8292,-1.8307,-1.8307,-1.8316,-1.8334,-1.8341,-1.8347,-1.8363,-1.8363,-1.8366,-1.8373,-1.8382,-1.8383,-1.8385,-1.8391,-1.8393,-1.8368,-1.8368,-1.8368,0,-1.8233,-1.825,-1.8256,-1.8268,-1.8275,-1.8277,-1.8289,-1.8296,-1.831,-1.8314,-1.8312,-1.8334,-1.8341,-1.8357,-1.8362,-1.8366,-1.8369,-1.8365,-1.8383,-1.8385,-1.8386,-1.8391,-1.8394,-1.8368,-1.8368,-1.8368,-1.8368,0,-1.8254,-1.8266,-1.8275,-1.8289,-1.8297,-1.8309,-1.8316,-1.8323,-1.8325,-1.833,-1.8345,-1.8353,-1.8365,-1.8369,-1.8371,-1.8386,-1.8384,-1.8382,-1.8377,-1.8388,-1.8394,-1.8396,-1.8369,-1.8369,-1.8368,-1.8368,0,0,-1.8268,-1.8286,-1.8289,-1.8295,-1.8308,-1.8317,-1.8329,-1.8342,-1.8348,-1.8357,-1.8367,-1.8382,-1.8381,-1.8387,-1.839,-1.8397,-1.841,-1.8394,-1.8394,-1.8396,-1.8427,-1.8428,-1.843,-1.841,-1.841,-1.841,-1.8426,0,-1.8282,-1.8305,-1.831,-1.8329,-1.834,-1.8342,-1.8353,-1.8361,-1.8367,-1.8376,-1.8382,-1.8392,-1.8389,-1.8393,-1.8401,-1.8406,-1.8416,-1.8406,-1.8418,-1.8418,-1.8415,-1.8433,-1.8434,-1.8448,-1.8428,-1.8428,-1.8428,0,-1.8302,-1.8313,-1.8333,-1.8345,-1.835,-1.836,-1.8371,-1.8381,-1.8391,-1.8394,-1.8402,-1.8404,-1.8416,-1.841,-1.8426,-1.842,-1.8425,-1.8429,-1.8429,-1.843,-1.8424,-1.8434,-1.8452,-1.8454,-1.8432,-1.8431,-1.8431,0,-1.831,-1.8329,-1.8344,-1.835,-1.8364,-1.8371,-1.8377,-1.8387,-1.8394,-1.8404,-1.8408,-1.8419,-1.8425,-1.8433,-1.8438,-1.8434,-1.8454,-1.8449,-1.8456,-1.8456,-1.846,-1.8459,-1.8479,-1.8464,-1.8464,-1.8464,-1.8464,0,-1.8325,-1.8337,-1.8348,-1.8357,-1.837,-1.8376,-1.8389,-1.8395,-1.8404,-1.8414,-1.8416,-1.8425,-1.8431,-1.8441,-1.8444,-1.8457,-1.846,-1.8462,-1.8463,-1.8462,-1.8461,-1.8465,-1.8464,-1.8465,-1.8465,-1.8464,-1.8464,0,-1.8335,-1.8343,-1.8359,-1.8372,-1.8375,-1.8385,-1.8395,-1.8404,-1.8409,-1.8421,-1.8425,-1.8433,-1.8444,-1.845,-1.8464,-1.8467,-1.8481,-1.8481,-1.8478,-1.8478,-1.8485,-1.8484,-1.8508,-1.8511,-1.8494,-1.8494,-1.8494,0,-1.8344,-1.8354,-1.8368,-1.8375,-1.8382,-1.8393,-1.8401,-1.8407,-1.8415,-1.8427,-1.8434,-1.8446,-1.8455,-1.8473,-1.848,-1.8491,-1.8491,-1.8499,-1.8493,-1.8491,-1.8491,-1.849,-1.8491,-1.8499,-1.85,-1.85,-1.85,0,-1.836,-1.8363,-1.8374,-1.8387,-1.8396,-1.8406,-1.8416,-1.8421,-1.8429,-1.8437,-1.845,-1.8457,-1.8472,-1.8484,-1.8495,-1.85,-1.8501,-1.8502,-1.8504,-1.8503,-1.85,-1.8501,-1.848,-1.8501,-1.8501,-1.8501,-1.8501,-1.8501,-1.8369,-1.8378,-1.8389,-1.8402,-1.841,-1.8419,-1.8428,-1.8435,-1.8446,-1.8459,-1.8462,-1.8474,-1.8484,-1.85,-1.8506,-1.8515,-1.8514,-1.8517,-1.8518,-1.8518,-1.8518,-1.8499,-1.8517,-1.8517,-1.8517,-1.8517,-1.8517,0,-1.8384,-1.8392,-1.8403,-1.8418,-1.8427,-1.8428,-1.8439,-1.8447,-1.8459,-1.8468,-1.8478,-1.8492,-1.8503,-1.8511,-1.8523,-1.8529,-1.8529,-1.8532,-1.8531,-1.8532,-1.8519,-1.8516,-1.8531,-1.8531,-1.8531,-1.8531,-1.8531,-1.8531,-1.8393,-1.8408,-1.8413,-1.8431,-1.8439,-1.8452,-1.8458,-1.8467,-1.8474,-1.849,-1.85,-1.8505,-1.8514,-1.8526,-1.8537,-1.8539,-1.8542,-1.8544,-1.8546,-1.8534,-1.8533,-1.8532,-1.8529,-1.8545,-1.8545,-1.8558,-1.8558,-1.8558]}]]